Simultaneous Nadir Overpasses (SNOs) Predictions

Prediction of SNOs between AQUA and GOES-15 Satellite Orbit:

Table of predicted SNOs for the next 14.0 days since TLE Epoch: 2/14/2014
Index Date Time (AQUA) AQUA Lat,Lon GOES-15 Lat,Lon Distance(km) Time Diff (sec)
1 02/16/2014 10:26:36 -0.63,-132.73 -0.08,-135.35 297.75 80
2 02/16/2014 22:48:00 -0.45,-137.93 0.08,-135.36 292.15 80
3 02/18/2014 22:35:49 0.15,-134.97 0.08,-135.34 41.84 80
4 02/20/2014 22:23:38 0.78,-132.01 0.08,-135.31 375.28 80
5 02/21/2014 10:44:53 0.35,-137.16 -0.07,-135.29 212.41 80
6 02/23/2014 10:32:42 -0.32,-134.20 -0.07,-135.25 120.27 80
7 02/23/2014 22:54:05 -0.84,-139.38 0.06,-135.25 470.55 80
8 02/25/2014 10:20:29 -0.91,-131.23 -0.06,-135.21 452.40 80
9 02/25/2014 22:41:53 -0.18,-136.42 0.06,-135.20 138.41 80
10 02/27/2014 22:29:39 0.39,-133.44 0.05,-135.15 193.60 80




NCC Satellite Simultaneous Nadir Overpasses (SNOs) Prediction Service
